Satellite-Ground Cal/Val Site Overpasses Predictions

Prediction of Satellite NPP Overpassing Cal/Val Site: Antarctic Dome C

Ground Cal/Val Site Location: Latitude: -75.10, Longitude: 123.35; Satellite-Ground Site NADIR distance within 100 km.

Table of predicted overpasses for the next 14.0 days since TLE Epoch: 2/12/2022
Interval Starting Time Ending Time Minimum Distance Time Minimum Distance (km)
1 02/12/2022 14:55:03 02/12/2022 14:55:32 02/12/2022 14:55:17 19.48
2 02/13/2022 14:36:22 02/13/2022 14:36:36 02/13/2022 14:36:29 87.48
3 02/14/2022 07:37:54 02/14/2022 07:38:21 02/14/2022 07:38:07 35.61
4 02/15/2022 07:19:09 02/15/2022 07:19:28 02/15/2022 07:19:18 74.47
5 02/17/2022 15:01:24 02/17/2022 15:01:48 02/17/2022 15:01:36 56.68
6 02/18/2022 14:42:34 02/18/2022 14:42:58 02/18/2022 14:42:46 52.35
7 02/19/2022 07:44:15 02/19/2022 07:44:35 02/19/2022 07:44:25 71.07
8 02/20/2022 07:25:23 02/20/2022 07:25:50 02/20/2022 07:25:37 36.90
9 02/22/2022 15:07:50 02/22/2022 15:07:59 02/22/2022 15:07:54 94.63
10 02/23/2022 14:48:49 02/23/2022 14:49:18 02/23/2022 14:49:04 16.54
